Regional Weather Roundup
Issued by NWS

Home | Current Version | Previous Version | Graphics & Text | Print | Product List | Glossary On
Versions: 1 2 3 4 5 6 7 8 9 10 11 12 13 14 15 16 17 18 19 20 21 22 23 24 25 26 27 28 29 30 31 32 33 34 35 36 37 38 39 40 41 42 43 44 45 46 47 48 49 50
000
ASUS43 KDMX 230203
RWRIA

WEATHER ROUNDUP FOR IOWA
NATIONAL WEATHER SERVICE DES MOINES IA
900 PM CDT FRI JUL 22 2016

NOTE: "FAIR" INDICATES FEW OR NO CLOUDS BELOW 12,000 FEET WITH NO
SIGNIFICANT WEATHER AND/OR OBSTRUCTIONS TO VISIBILITY.

* - THESE STATIONS ARE NOT NWS STATIONS...THUS NOT UNDER NWS
QUALITY CONTROL.  THEY ALSO DO NOT REPORT WEATHER SUCH
AS PRECIPITATION OR FOG.

IAZ001>003-012>014-020>022-031>034-043>046-230300-
   NORTHWEST IOWA

CITY           SKY/WX    TMP DP  RH WIND       PRES   REMARKS
CARROLL *      PTCLDY    82  81  94 SE5       29.93F HX  95
CHEROKEE *     MOCLDY    84  81  89 E3        29.94R HX  98
DENISON *      CLOUDY    84  81  89 SE5       29.91F HX  98
LE MARS *      MOCLDY    88  79  74 E5        29.93R HX 102
SHELDON *      PTCLDY    82  81  94 VRB6      29.94F HX  95
SPENCER        CLOUDY    83  78  85 E6        29.96S HX  93
STORM LAKE *   PTCLDY    82  79  89 CALM      29.96R HX  93
$$

IAZ055>058-069>071-079>083-090>094-230300-
   SOUTHWEST IOWA

CITY           SKY/WX    TMP DP  RH WIND       PRES   REMARKS
ATLANTIC *     PTCLDY    86  79  79 SE6       29.93S HX  99
CLARINDA *       N/A     86  81  84 MISG      29.94S HX 102
COUNCIL BLFS * CLOUDY    84  81  89 E10       29.91S HX  98
CRESTON *      PTCLDY    81  77  89 SE7       29.97S HX  88
HARLAN  *      CLEAR     84  81  89 SE7       29.96S HX  98
LAMONI         CLOUDY    82  77  84 SE8       29.96F HX  90
RED OAK *      MOCLDY    86  81  84 E8        29.92S HX 102
SHENANDOAH *   CLOUDY    86  82  89 SE10      29.90S HX 105
$$

IAZ047>049-059>061-072>074-084-230300-
   CENTRAL IOWA

CITY           SKY/WX    TMP DP  RH WIND       PRES   REMARKS
AMES           CLEAR     82  80  94 SE6       29.95S HX  94
ANKENY *         N/A    N/A N/A N/A MISG        N/A
BOONE *        CLEAR     82  79  89 SE6       29.95S HX  93
CHARITON *       N/A    N/A N/A N/A MISG        N/A
DES MOINES     PTCLDY    87  78  74 SE8       29.93F HX 100
GRINNELL*      CLEAR     82  76  84 CALM      29.98F HX  88
KNOXVILLE *    CLEAR     82  77  83 SE6       29.94F HX  91
MARSHALLTOWN   PTCLDY    82  78  88 S7        29.95F HX  91
NEWTON *       CLEAR     82  81  94 SE7       29.95F HX  95
PELLA *        CLEAR     82  76  83 CALM      29.96F HX  89
PERRY *          N/A     83  82  94 SE5       29.94S HX  98
$$

IAZ004>006-015-016-023>025-035-036-230300-
   NORTH CENTRAL IOWA

CITY           SKY/WX    TMP DP  RH WIND       PRES   REMARKS
ALGONA *       CLOUDY    84  79  84 SE8       29.97S HX  96
ESTHERVILLE    CLEAR     80  79  96 E5        29.97S HX  88
FORT DODGE *   MOCLDY    82  79  89 E6        29.95F HX  93
MASON CITY     PTCLDY    81  78  91 SE5       29.99R HX  89
FOREST CITY *  MOCLDY    81  79  94 E3        29.97F HX  89
IOWA FALLS *   CLOUDY    83  78  86 SE3       29.98R HX  93
$$

IAZ007>011-017>019-026>030-037>042-050>054-066-230300-
   NORTHEAST IOWA

CITY           SKY/WX    TMP DP  RH WIND       PRES   REMARKS
CEDAR RAPIDS   CLEAR     82  81  96 SE5       29.96F HX  95
CHARLES CITY * CLEAR     81  81 100 SE5       29.98S HX  91
CLINTON *      MOCLDY    81  77  88 CALM      29.99S HX  88
DECORAH *      PTCLDY    81  79  94 CALM      29.98S HX  89
DUBUQUE        PTCLDY    79  77  94 S3        29.99F HX  83
MONTICELLO *   CLOUDY    81  79  94 CALM      29.97F HX  89
OELWEIN *      CLEAR     81  79  94 SE5       29.98F HX  89
WATERLOO       CLEAR     83  76  79 SE6       29.94F HX  91
$$

IAZ064-065-067-068-078-230300-
   EAST CENTRAL IOWA

CITY           SKY/WX    TMP DP  RH WIND       PRES   REMARKS
DAVENPORT      PTCLDY    78  76  93 CALM      29.99S HX  81
IOWA CITY      CLEAR     81  78  91 SE6       29.98F HX  89
MT. PLEASANT * PTCLDY    83  82  98 SE3       29.98S HX  97
MUSCATINE *    PTCLDY    82  79  89 CALM      29.97F HX  93
QUAD CITIES    MOCLDY    82  77  84 SW3       29.98S HX  90
$$

IAZ062-063-075>077-085>089-095>099-230300-
   SOUTHEAST IOWA

CITY           SKY/WX    TMP DP  RH WIND       PRES   REMARKS
BURLINGTON     CLOUDY    81  79  94 CALM      29.98F HX  90
FAIRFIELD *    PTCLDY    81  77  89 CALM      29.97S HX  88
KEOKUK *       CLOUDY    84  77  79 S5        29.98F HX  94
CENTERVILLE *    N/A     77  77 100 CALM      29.99F
OTTUMWA        CLEAR     79  75  87 SE5       29.96R HX  83
WASHINGTON *   PTCLDY    81  79  94 E6        29.99S HX  89
$$

ABBREVIATIONS USED IN REMARKS
   TC - TEMPERATURES IN CELSIUS
  WCI - WIND CHILL INDEX
   HX - HEAT INDEX
  VSB - VISIBILITY
$$





USA.gov is the U.S. government's official web portal to all federal, state and local government web resources and services.